Weather in Izberbash

Russia / Republic of Dagestan     42°33′54″N   47°52′15″E
temp.,
°C
wind,
m/s
gust,
m/s
humid.,
%
clouds,
%
prec.,
mm/h
press.,
hPa
HPBL,
m
21 october, thu
thu2100:00+6nw355854 0.1 1031472
03:00+5ese016634 0.1 103279
06:00+5s23765 0.0 103294
09:00+8sse34605 0.0 1032523
12:00+11se55587 0.0 1030885
15:00+11se666193 0.0 1028739
18:00+9s45750 0.0 1028131
21:00+9s33733 0.0 102758
22 october, fri
fri2200:00+9s33660 0.0 102438
03:00+10ssw22560 0.0 102220
06:00+10ssw22500 0.0 102119
09:00+15ese22390 0.0 1021158
12:00+18e22380 0.0 1020337
15:00+17ne11480 0.0 1019193
18:00+14nw22610 0.0 102019
21:00+13nw11600 0.0 102012
23 october, sat
sat2300:00+12w11600 0.0 102011
03:00+12wsw11550 0.0 102013
06:00+12w11530 0.0 102011
09:00+16e11450 0.0 1020186
12:00+17e22490 0.0 1020470
15:00+17ese32560 0.0 1019397
18:00+13s22720 0.0 101927
21:00+13sw11672 0.0 101915
24 october, sun
sun2400:00+13wnw11631 0.0 101810
03:00+12wnw22591 0.0 101814
06:00+11w11627 0.0 101911
09:00+16ne11475 0.0 1019241
12:00+17ene21465 0.0 1018580
15:00+17e214989 0.0 1017487
18:00+14ssw1164100 0.0 101812
21:00+13w116322 0.0 101711
25 october, mon
mon2500:00+12nw2261100 0.0 101612
03:00+11wnw2262100 0.0 101511
06:00+11wnw226380 0.0 101522
09:00+13nnw556595 0.0 1016549
12:00+8nnw81185100 0.1 1018708
15:00+6nnw91488100 0.3 1020829
18:00+7nw91564100 0.1 10231245
21:00+6nw6126757 0.1 1025787